Regional Weather Roundup
Issued by NWS Nashville, TN

Home | Current Version | Previous Version | Text Only | Print | Product List | Glossary On
Versions: 1 2 3 4 5 6 7 8 9 10 11 12 13 14 15 16 17 18 19 20 21 22 23 24 25 26 27 28 29 30 31 32 33 34 35 36 37 38 39 40 41 42 43 44 45 46 47 48 49 50
000
ASUS44 KOHX 281515
RWROHX
MIDDLE TENNESSEE HOURLY WEATHER ROUNDUP
NATIONAL WEATHER SERVICE NASHVILLE TN
1000 AM CDT TUE APR 28 2015

NOTE: "FAIR" INDICATES FEW OR NO CLOUDS BELOW 12,000 FEET WITH
NO SIGNIFICANT WEATHER AND/OR OBSTRUCTIONS TO VISIBILITY.

* THESE REPORTS ARE NOT UNDER NWS QUALITY CONTROL AND MAY NOT
  REPORT WEATHER SUCH AS PRECIPITATION AND FOG.


TNZ005>011-023>034-057-059-062>066-078-080-281600
...NORTHERN MIDDLE TENNESSEE...

CITY           SKY/WX    TMP DP  RH WIND       PRES   REMARKS
CLARKSVILLE    MOSUNNY   57  41  55 NE12      30.04S
CROSSVILLE     SUNNY     57  37  47 VRB3      30.00F
LIVINGSTON     SUNNY     48  38  68 NE9       30.01S
PORTLAND       PTSUNNY   46  39  76 NE7       30.02S
ROCKWOOD       SUNNY     41  36  82 NE3       29.98S
SMYRNA         PTSUNNY   58  43  57 N6        30.03S
SPARTA         SUNNY     61  45  55 CALM      29.99F
$$
TNZ056-058-060-061-075>077-079-093>097-281600
...SOUTHERN MIDDLE TENNESSEE...

CITY           SKY/WX    TMP DP  RH WIND       PRES   REMARKS
COLUMBIA       SUNNY     59  32  36 NE7       29.98S
MCMINNVILLE    SUNNY     61  43  51 E10       29.99F
MURFREESBORO   PTSUNNY   58  40  51 NE6       30.00S
SHELBYVILLE    SUNNY     63  45  51 E8        30.00S
TULLAHOMA      SUNNY     57  39  51 NE6       29.99S
WINCHESTER     SUNNY     61  43  51 N6        29.97S
$$


...KEY TO REMARKS...
VSB - VISIBILITY IN MILES
WCI - WIND CHILL INDEX
HX  - HEAT INDEX




USA.gov is the U.S. government's official web portal to all federal, state and local government web resources and services.